Location: Newark
(41.9364°N, 2.8061°E)
Time: 17:49:09
(UTC+00:00)

A-11 Canister half - Pass Details

Date: 26 February 2020
Orbit: 1517 x 1683 km, 47.2° (Epoch: 04 April)

Event Time Altitude Azimuth Distance (km) Brightness Sun altitude
Rises 20:28:12 0° 296° (WNW) 4,843 12.7 -32.7°
Reaches altitude 10° 20:31:22 10° 294° (WNW) 3,832 11.9 -33.2°
Maximum altitude 20:40:59 69° 215° (SW) 1,662 9.0 -34.9°
Enters shadow 20:41:52 65° 184° (S) 1,689 8.9 -35.0°
